{"data":{"norad_id":68389,"intl_designator":"2026-063K","name":"STARLINK-37197","alt_names":[],"object_type":"PAYLOAD","status":"ACTIVE","operator":null,"country":"US","launch_date":"2026-03-26","launch_site_code":"AFWTR","launch_vehicle":null,"mission":null,"orbit_class":"UNKNOWN","rcs_meters":null,"size_class":null,"mass_kg":null,"dimensions":null,"purposes":["comms"],"wikipedia_slug":null,"has_3d_model":false,"image_url":null,"decayed_at":null,"tle_current":{"epoch":"2026-05-25T00:00:02.000160Z","epoch_age_seconds":71880,"freshness":"FRESH","line1":"1 68389U 26063K   26145.00002315  .00013054  00000+0  40696-3 0  9990","line2":"2 68389  97.2860 287.6164 0002115  13.0431 340.1258 15.33366885  5852","mean_motion":15.33366885,"eccentricity":0.0002115,"inclination_deg":97.286,"raan_deg":287.6164,"arg_perigee_deg":13.0431,"mean_anomaly_deg":340.1258,"bstar":0.00040696,"rev_number":585,"period_min":93.910988562923,"perigee_km":464.32811211137,"apogee_km":467.22308714101,"semimajor_km":6843.9125996262,"source":"CELESTRAK","updated_at":"2026-05-25T13:38:21.929990Z"}}}